Bergplaas, South Africa

10:25 AM SAST on April 21, 2018 (GMT +0200)
Bergplaas

Weather History for 68828 - August, 2013

Change the Weather History Date:

Friday, August 30, 2013

  Actual Average Record
Temperature  
Mean Temperature 50 °F -  
Max Temperature 61 °F 64 °F - ()
Min Temperature 39 °F 47 °F - ()
Degree Days  
Heating Degree Days 15    
Moisture  
Dew Point 36 °F    
Average Humidity 57    
Maximum Humidity 87    
Minimum Humidity 26    
Precipitation  
Precipitation 0.00 in - - ()
Sea Level Pressure  
Sea Level Pressure 29.86 in    
Wind  
Wind Speed 9 mph ()    
Max Wind Speed 23 mph    
Max Gust Speed -    
Visibility 9.9 miles    
Events      
T = Trace of Precipitation, MM = Missing Value Source: Averaged Metar Reports

Daily Weather History Graph

Daily Weather History Graph

Search for Another Location

Airport or City:

Astronomy

Aug. 30, 2013 Rise Set
Actual Time 6:51 AM SAST 6:11 PM SAST
Civil Twilight 6:26 AM SAST 6:36 PM SAST
Nautical Twilight 5:57 AM SAST 7:05 PM SAST
Astronomical Twilight 5:28 AM SAST 7:34 PM SAST
Moon 2:30 AM SAST (8/30) 12:58 PM SAST (8/30)
Length of Visible Light 12h 10m
Length of Day
11h 19m
Waning Crescent, 31% of the Moon is Illuminated
Aug 30
Waning Crescent
Sep 5
New
Sep 12
First Quarter
Sep 19
Full
Sep 27
Last Quarter

Hourly Weather History & Observations

Time (SAST) Temp. Windchill Dew Point Humidity Pressure Visibility Wind Dir Wind Speed Gust Speed Precip Events Conditions
12:00 AM 44.6 °F 42.2 °F 39.2 °F 81% 29.89 in - WNW 4.6 mph - N/A   Clear
1:00 AM 44.6 °F 43.1 °F 39.2 °F 81% 29.86 in - NNW 3.5 mph - N/A   Clear
2:00 AM 43 °F - 38 °F 76% 29.89 in 19 mi WNW 5.8 mph - -  
2:00 AM 42.8 °F 39.3 °F 39.2 °F 87% 29.86 in - NW 5.8 mph - N/A   Clear
4:00 AM 44.6 °F 38.8 °F 35.6 °F 71% 29.83 in - WNW 11.5 mph - N/A   Clear
5:00 AM 43 °F - 35 °F 64% 29.88 in 19 mi WNW 8.1 mph - -  
5:00 AM 42.8 °F 38.0 °F 33.8 °F 70% 29.86 in - WNW 8.1 mph - N/A   Clear
6:00 AM 41.0 °F 35.8 °F 33.8 °F 76% 29.86 in - WNW 8.1 mph - N/A   Clear
7:00 AM 42.8 °F 38.6 °F 32.0 °F 66% 29.86 in - NW 6.9 mph - N/A   Clear
8:00 AM 45 °F - 35 °F 59% 29.91 in 31 mi North 3.5 mph - -   Scattered Clouds
8:00 AM 44.6 °F 43.1 °F 35.6 °F 71% 29.89 in 6.2 mi NNW 3.5 mph - N/A   Partly Cloudy
9:00 AM 50.0 °F - 37.4 °F 62% 29.89 in - WNW 9.2 mph - N/A   Clear
10:00 AM 53.6 °F - 33.8 °F 47% 29.89 in 6.2 mi WNW 15.0 mph - N/A   Partly Cloudy
11:00 AM 55 °F - 35 °F 35% 29.89 in 19 mi WNW 18.4 mph - -   Scattered Clouds
11:00 AM 55.4 °F - 33.8 °F 44% 29.86 in 6.2 mi WNW 18.4 mph - N/A   Partly Cloudy
12:00 PM 55.4 °F - 33.8 °F 44% 29.86 in 6.2 mi West 23.0 mph - N/A   Partly Cloudy
1:00 PM 57.2 °F - 35.6 °F 44% 29.83 in 6.2 mi West 19.6 mph - N/A   Partly Cloudy
2:00 PM 59 °F - 33 °F 26% 29.82 in 12 mi West 20.7 mph - -   Scattered Clouds
2:00 PM 59.0 °F - 33.8 °F 39% 29.80 in 6.2 mi West 20.7 mph - N/A   Partly Cloudy
3:00 PM 60.8 °F - 33.8 °F 36% 29.80 in 6.2 mi WNW 18.4 mph - N/A   Scattered Clouds
4:00 PM 57.2 °F - 35.6 °F 44% 29.83 in 6.2 mi WSW 20.7 mph - N/A   Scattered Clouds
5:00 PM 58 °F - 35 °F 31% 29.83 in 12 mi West 17.3 mph - -   Scattered Clouds
5:00 PM 59.0 °F - 35.6 °F 42% 29.83 in 6.2 mi West 17.3 mph - N/A   Partly Cloudy
6:00 PM 53.6 °F - 37.4 °F 54% 29.83 in - West 13.8 mph - N/A   Clear
7:00 PM 48.2 °F - 37.4 °F 66% 29.86 in - West 10.4 mph - N/A   Clear
8:00 PM 49 °F - 38 °F 55% 29.89 in 12 mi WNW 10.4 mph - -   Partly Cloudy
8:00 PM 50.0 °F - 37.4 °F 62% 29.89 in - WNW 10.4 mph - N/A   Clear
9:00 PM 48.2 °F - 39.2 °F 71% 29.89 in - WNW 9.2 mph - N/A   Clear
10:00 PM 51.8 °F - 33.8 °F 50% 29.89 in - WNW 13.8 mph - N/A   Clear
11:00 PM 51.8 °F - 32.0 °F 47% 29.86 in - WNW 16.1 mph - N/A   Clear